Location: Camps Bay
(33.9517°S, 18.3844°E)
Time: 21:45:42
(UTC+00:00)

Cosmos 1953 - Pass Details

Date: 18 January 2020
Orbit: 539 x 558 km, 82.5° (Epoch: 16 February)

Event Time Altitude Azimuth Distance (km) Brightness Sun altitude
Rises 03:20:56 0° 181° (S) 2,736 6.3 -6.8°
Reaches altitude 10° 03:23:10 10° 175° (S) 1,836 5.5 -6.4°
Maximum altitude 03:27:06 51° 98° (E) 699 3.4 -5.6°
Drops below altitude 10° 03:31:00 10° 22° (NNE) 1,819 4.9 -4.9°
Sets 03:33:12 0° 16° (NNE) 2,706 5.7 -4.5°
